This is the latest recevied weather packets stored in our database for station/object OE6ACM-14. If no packets are shown the sender has not sent any weather packets the latest 10 day(s).
| Time | Temp. | Humidity | Pressure | Rain* | Wind** | Luminosity | Snow |
|---|---|---|---|---|---|---|---|
| 1777578853 | 3.89° C | 41% | 937.5 hPa | - | - | - | - |
| 1777578553 | 3.89° C | 43% | 937.5 hPa | - | - | - | - |
| 1777578253 | 4.44° C | 40% | 937.5 hPa | - | - | - | - |
| 1777577953 | 5° C | 39% | 937.3 hPa | - | - | - | - |
| 1777577653 | 5° C | 37% | 937.2 hPa | - | - | - | - |
| 1777577353 | 5° C | 38% | 937.1 hPa | - | - | - | - |
| 1777577053 | 5.56° C | 38% | 937.1 hPa | - | - | - | - |
| 1777576753 | 5.56° C | 39% | 937.1 hPa | - | - | - | - |
| 1777576453 | 6.11° C | 36% | 937 hPa | - | - | - | - |
| 1777576153 | 6.11° C | 35% | 937 hPa | - | - | - | - |
| 1777575853 | 6.11° C | 35% | 936.9 hPa | - | - | - | - |
| 1777575553 | 6.11° C | 35% | 936.8 hPa | - | - | - | - |
| 1777575253 | 6.67° C | 35% | 936.8 hPa | - | - | - | - |
| 1777574953 | 6.67° C | 34% | 936.7 hPa | - | - | - | - |
| 1777574653 | 6.67° C | 35% | 936.6 hPa | - | - | - | - |
| 1777574353 | 7.22° C | 33% | 936.5 hPa | - | - | - | - |
| 1777574053 | 7.22° C | 33% | 936.4 hPa | - | - | - | - |
| 1777573753 | 7.78° C | 33% | 936.2 hPa | - | - | - | - |
| 1777573453 | 7.78° C | 32% | 936.2 hPa | - | - | - | - |
| 1777573153 | 7.78° C | 32% | 936.1 hPa | - | - | - | - |
| 1777572853 | 8.33° C | 31% | 936 hPa | - | - | - | - |
| 1777572553 | 8.33° C | 31% | 935.8 hPa | - | - | - | - |
| 1777572253 | 8.89° C | 31% | 935.8 hPa | - | - | - | - |
| 1777571953 | 8.89° C | 30% | 935.8 hPa | - | - | - | - |
| 1777571653 | 9.44° C | 29% | 935.7 hPa | - | - | - | - |
* Rain since midnight (hover to see other rain measurements)
** Current wind speed in m/s (hover to see current wind gust speed)